Overview Statistics Trail Chart Weather Telemetry Raw packets
 

This is the latest recevied weather packets stored in our database for station/object KQ4WWD. If no packets are shown the sender has not sent any weather packets the latest 10 day(s).

<< 37 38 39 40 41 42 43 >>
Time Temp. Humidity Pressure Rain* Wind** Luminosity Snow
1788360751 30° C 84% 1016.5 hPa 0 mm - 319 W/m² -
1788360446 30° C 84% 1016.6 hPa 0 mm - 349 W/m² -
1788360142 29.44° C 85% 1016.5 hPa 0 mm - 722 W/m² -
1788359837 29.44° C 85% 1016.4 hPa 0 mm - 152 W/m² -
1788359532 30° C 85% 1016.3 hPa 0 mm - 248 W/m² -
1788359228 30° C 84% 1016.6 hPa 0 mm - 684 W/m² -
1788358923 29.44° C 86% 1016.4 hPa 0 mm - 413 W/m² -
1788358623 29.44° C 86% 1016.5 hPa 0 mm - 226 W/m² -
1788358319 28.89° C 87% 1016.4 hPa 0 mm - 317 W/m² -
1788358015 28.33° C 88% 1016.3 hPa 0 mm - 200 W/m² -
1788357715 28.89° C 88% 1016.2 hPa 0 mm - 149 W/m² -
1788357413 28.33° C 88% 1016.3 hPa 0 mm - 590 W/m² -
1788357109 28.33° C 88% 1016.3 hPa 0 mm - 183 W/m² -
1788356804 28.33° C 89% 1016.2 hPa 0 mm - 419 W/m² -
1788356504 27.78° C 91% 1016.2 hPa 0 mm - 406 W/m² -
1788356200 27.78° C 92% 1016.2 hPa 0 mm - 412 W/m² -
1788355899 27.22° C 93% 1016.3 hPa 0 mm - 386 W/m² -
1788355595 26.67° C 94% 1016.3 hPa 0 mm - 410 W/m² -
1788355290 26.11° C 94% 1016.2 hPa 0 mm - 428 W/m² -
1788354986 26.11° C 94% 1016.5 hPa 0 mm - 111 W/m² -
1788354681 26.11° C 94% 1016.4 hPa 0 mm - 90 W/m² -
1788354377 26.11° C 94% 1016.2 hPa 0 mm - 71 W/m² -
1788354072 26.11° C 94% 1016.3 hPa 0 mm - 68 W/m² -
1788353768 25.56° C 95% 1016.6 hPa 0 mm - 67 W/m² -
1788353463 25.56° C 95% 1016.4 hPa 0 mm - 46 W/m² -

* Rain latest hour (hover to see other rain measurements)
** Current wind speed in m/s (hover to see current wind gust speed)